Location: Erdweis
(48.5167°N, 15.3500°E)
Time: 17:18:35
(UTC+00:00)

Cosmos 2285 Rocket - Pass Details

Date: 18 September 2020
Orbit: 970 x 1000 km, 74.0° (Epoch: 28 October)

Event Time Altitude Azimuth Distance (km) Brightness Sun altitude
Rises 19:32:40 0° 199° (SSW) 3,652 6.9 -24.0°
Reaches altitude 10° 19:35:11 10° 198° (SSW) 2,711 6.2 -24.4°
Maximum altitude 19:41:28 85° 112° (ESE) 986 3.9 -25.2°
Drops below altitude 10° 19:47:51 10° 24° (NNE) 2,745 6.5 -26.1°
Sets 19:50:25 0° 24° (NNE) 3,702 7.2 -26.4°
